Location: Allentsteig
(48.6833°N, 15.3167°E)
Time: 07:31:52
(UTC+00:00)

Cosmos 2298 Rocket - Pass Details

Date: 17 January 2021
Orbit: 775 x 784 km, 74.0° (Epoch: 24 February)

Event Time Altitude Azimuth Distance (km) Brightness Sun altitude
Exits shadow 03:44:24 - 358° (N) 2,743 6.9 -29.2°
Reaches altitude 10° 03:46:30 10° 17° (NNE) 2,353 6.7 -28.9°
Maximum altitude 03:48:29 12° 39° (NE) 2,218 6.8 -28.5°
Drops below altitude 10° 03:50:27 10° 61° (ENE) 2,350 7.3 -28.2°
Sets 03:54:36 0° 92° (E) 3,274 8.6 -27.5°
